sat.trackr.live / text

‹ back to catalog

STARLINK-36263

NORAD 67202 · 2025-304L

PAYLOAD ACTIVE UNKNOWN

§ Identity

Operator
Country
US
Launch date
2025-12-17
Launch site
AFWTR
Launch vehicle
Mass (kg)
RCS (m²)

Purposes: comms

External: N2YO · Heavens-Above · Gunter

§ Orbital elements

Epoch: 2026-09-19T08:47:51.166752Z

Period
96.11 min
Inclination
70.0018°
Eccentricity
0.0002838
Mean motion
14.98339733 rev/d
Perigee alt
570.1 km
Apogee alt
574.0 km
Semi-major
6,950.2 km
B*
3.1122e-4
RAAN
46.2091°
Arg perigee
267.1831°
Mean anomaly
92.9004°
Rev number
4,289

§ Raw data

STARLINK-362631 67202U 25304L   26262.36656443  .00003623  00000+0  31122-3 0  99912 67202  70.0018  46.2091 0002838 267.1831  92.9004 14.98339733 42893

JSON: /api/v1/satellites/67202 · /tle

For live sub-satellite position, see the globe view (requires WebGL).

§ Visibility from observer

Set your observer location to see the next 7 days of passes ≥ 10°. The values pass through the URL so the page stays shareable.

No JS? Fill the form by hand. The geolocation button needs JavaScript.